KI4HRG Weather Reports


time (UTC)temp
C
wind
direction
speed
KPH
gust
KPH
rain 1hr
cm
rain 24hr
cm
rain mn
cm
humidity
%
barometer
mb
20260510202422 25 108 1.6 3.2 0.00 0.00 0.00 69 1016.4
20260510201919 25 75 1.6 4.8 0.00 0.00 0.00 70 1016.5
20260510201416 26 110 0.0 1.6 0.00 0.00 0.00 69 1016.5
20260510200913 26 323 1.6 4.8 0.00 0.00 0.00 68 1016.3
20260510200412 26 340 0.0 1.6 0.00 0.00 0.00 67 1016.5
20260510195906 26 315 0.0 1.6 0.00 0.00 0.00 67 1016.6
20260510195404 25 288 1.6 1.6 0.00 0.00 0.00 68 1016.5
20260510194858 25 191 0.0 3.2 0.00 0.00 0.00 70 1016.4
20260510194355 24 323 4.8 8.0 0.00 0.00 0.00 72 1016.6
20260510193851 24 205 0.0 3.2 0.00 0.00 0.00 72 1016.6
20260510193346 24 10 0.0 3.2 0.00 0.00 0.00 72 1016.6
20260510192841 25 275 0.0 4.8 0.00 0.00 0.00 72 1016.5
20260510192337 25 37 0.0 3.2 0.00 0.00 0.00 71 1016.7
20260510191833 24 4 1.6 3.2 0.00 0.00 0.00 73 1016.7
20260510191329 24 10 1.6 3.2 0.00 0.00 0.00 72 1016.8
20260510190827 25 24 0.0 3.2 0.00 0.00 0.00 71 1016.8
20260510190325 25 13 1.6 3.2 0.00 0.00 0.00 72 1016.8
20260510185820 24 271 1.6 1.6 0.00 0.00 0.00 73 1016.8
20260510185319 23 358 0.0 1.6 0.00 0.00 0.00 77 1017.0
20260510184816 22 105 6.4 8.0 0.00 0.00 0.00 79 1016.9
20260510184312 23 105 4.8 4.8 0.00 0.00 0.00 77 1017.1
20260510183807 23 118 8.0 9.7 0.00 0.00 0.00 77 1017.3
20260510183302 22 35 0.0 3.2 0.00 0.00 0.00 80 1017.4
20260510182758 22 104 1.6 9.7 0.00 0.00 0.00 81 1017.3
20260510182255 23 169 1.6 8.0 0.00 0.00 0.00 78 1017.1
20260510181751 23 103 0.0 4.8 0.00 0.00 0.00 78 1017.2
20260510181248 22 210 3.2 4.8 0.00 0.00 0.00 81 1017.3
20260510180745 22 96 3.2 3.2 0.00 0.00 0.00 81 1017.3
20260510180242 22 97 1.6 9.7 0.00 0.00 0.00 82 1017.5
20260510175739 23 45 0.0 4.8 0.00 0.00 0.00 78 1017.3
20260510175234 22 255 1.6 4.8 0.00 0.00 0.00 80 1017.4
20260510174731 22 138 4.8 8.0 0.00 0.00 0.00 82 1017.5
20260510174229 22 173 1.6 4.8 0.00 0.00 0.00 82 1017.7
20260510173725 22 146 3.2 8.0 0.00 0.00 0.00 84 1017.6
20260510173220 22 173 1.6 8.0 0.00 0.00 0.00 83 1017.7
20260510172716 22 186 1.6 1.6 0.00 0.00 0.00 85 1017.9
20260510172212 21 176 0.0 1.6 0.00 0.00 0.00 88 1017.9
20260510171709 20 150 0.0 4.8 0.00 0.00 0.00 89 1018.0
20260510171207 20 104 1.6 3.2 0.00 0.00 0.00 89 1018.0
20260510170703 20 162 0.0 3.2 0.00 0.00 0.00 89 1018.1
20260510170159 20 123 0.0 3.2 0.00 0.00 0.00 89 1018.1
20260510165656 21 147 1.6 3.2 0.00 0.00 0.00 88 1018.1
20260510165152 21 119 0.0 3.2 0.00 0.00 0.00 87 1018.2
20260510164649 21 109 1.6 1.6 0.00 0.00 0.00 87 1018.1
20260510164147 21 59 0.0 0.0 0.00 0.00 0.00 87 1018.2
20260510163641 21 307 0.0 0.0 0.00 0.00 0.00 85 1018.3
20260510163137 21 300 1.6 3.2 0.00 0.00 0.00 84 1018.0
20260510162631 21 323 0.0 0.0 0.00 0.00 0.00 85 1017.8
20260510162129 21 285 1.6 1.6 0.00 0.00 0.00 85 1018.0
20260510161624 21 333 1.6 3.2 0.00 0.00 0.00 87 1018.0
20260510161121 21 214 0.0 3.2 0.00 0.00 0.00 87 1017.9
20260510160619 21 156 1.6 1.6 0.00 0.00 0.00 85 1017.7
20260510160118 21 165 0.0 1.6 0.00 0.00 0.00 88 1018.0
20260510155615 21 194 3.2 3.2 0.00 0.00 0.00 88 1017.8
20260510155111 21 206 0.0 3.2 0.00 0.00 0.00 88 1018.0
20260510154607 21 204 1.6 3.2 0.00 0.00 0.00 86 1017.9
20260510154102 21 4 0.0 1.6 0.00 0.00 0.00 87 1018.1
20260510153557 21 67 1.6 3.2 0.00 0.00 0.00 88 1018.0
20260510153054 20 266 0.0 1.6 0.00 0.00 0.00 90 1018.2
20260510152551 20 191 1.6 3.2 0.00 0.00 0.00 92 1017.9
20260510152048 20 28 0.0 0.0 0.00 0.00 0.00 95 1017.9
20260510151544 19 197 0.0 1.6 0.00 0.00 0.00 97 1018.2
20260510151042 18 82 1.6 3.2 0.00 0.00 0.00 98 1018.0
20260510150536 18 331 0.0 0.0 0.00 0.00 0.00 99 1018.1
20260510150033 18 81 0.0 0.0 0.00 0.00 0.00 99 1018.1
20260510145530 18 66 0.0 0.0 0.00 0.00 0.00 99 1018.0
20260510145026 18 64 0.0 0.0 0.00 0.00 0.00 99 1018.0
20260510144523 18 26 0.0 1.6 0.00 0.00 0.00 99 1018.0
20260510144019 17 51 0.0 0.0 0.00 0.00 0.00 99 1017.8
20260510143514 17 45 0.0 1.6 0.00 0.00 0.00 99 1017.9
20260510143011 17 44 0.0 0.0 0.00 0.00 0.00 99 1017.8
20260510142508 17 36 0.0 0.0 0.00 0.00 0.00 99 1017.9
20260510142004 17 21 0.0 0.0 0.00 0.00 0.00 99 1017.9
20260510141501 17 28 0.0 1.6 0.00 0.00 0.00 99 1018.1
20260510140959 17 28 0.0 0.0 0.00 0.00 0.00 99 1018.1
20260510140454 17 28 0.0 1.6 0.00 0.00 0.00 99 1018.1
20260510135954 17 77 1.6 1.6 0.00 0.00 0.00 99 1017.9
20260510135449 17 88 0.0 0.0 0.00 0.00 0.00 99 1017.9
20260510134947 17 64 0.0 0.0 0.00 0.00 0.00 99 1017.9
20260510134444 17 66 0.0 1.6 0.00 0.00 0.00 99 1017.8
20260510133941 17 68 0.0 0.0 0.00 0.00 0.00 99 1017.8
20260510133436 17 345 0.0 0.0 0.00 0.00 0.00 99 1017.8
20260510132932 17 349 0.0 0.0 0.00 0.00 0.00 99 1017.9
20260510132430 17 350 0.0 1.6 0.00 0.00 0.00 99 1017.8
20260510131926 17 33 0.0 0.0 0.00 0.00 0.00 99 1017.6
20260510131424 17 46 0.0 0.0 0.00 0.00 0.00 99 1017.8
20260510130920 17 43 0.0 0.0 0.00 0.00 0.00 99 1017.6
20260510130418 17 54 0.0 0.0 0.00 0.00 0.00 99 1017.6
20260510125915 17 15 0.0 0.0 0.00 0.00 0.00 99 1017.4
20260510125410 17 25 0.0 0.0 0.00 0.00 0.00 99 1017.5
20260510124908 17 37 0.0 1.6 0.00 0.00 0.00 99 1017.6
20260510124404 17 42 0.0 0.0 0.00 0.00 0.00 99 1017.5
20260510123900 17 38 1.6 1.6 0.00 0.00 0.00 99 1017.2
20260510123356 17 47 0.0 0.0 0.00 0.00 0.00 99 1017.2
20260510122853 17 46 0.0 0.0 0.00 0.00 0.00 99 1017.3
20260510122348 17 67 0.0 3.2 0.00 0.00 0.00 99 1017.3
20260510121844 17 50 0.0 0.0 0.00 0.00 0.00 99 1017.0
20260510121342 17 76 0.0 1.6 0.00 0.00 0.00 99 1017.0
20260510120839 17 33 0.0 0.0 0.00 0.00 0.00 99 1017.0
20260510120337 17 38 0.0 0.0 0.00 0.00 0.00 99 1016.9
20260510115832 17 22 0.0 0.0 0.00 0.00 0.00 99 1016.6
20260510115329 17 20 0.0 0.0 0.00 0.00 0.00 99 1016.6
20260510114825 17 20 0.0 0.0 0.00 0.00 0.00 99 1016.6
20260510114323 17 24 0.0 0.0 0.00 0.00 0.00 99 1016.4
20260510113817 17 32 0.0 0.0 0.00 0.00 0.00 99 1016.3
20260510113314 17 37 0.0 0.0 0.00 0.00 0.00 99 1016.3
20260510112811 17 41 0.0 0.0 0.00 0.00 0.00 99 1016.1
20260510112308 17 45 0.0 0.0 0.00 0.00 0.00 99 1015.8
20260510111803 17 339 0.0 0.0 0.00 0.00 0.00 99 1015.7
20260510111301 17 351 0.0 0.0 0.00 0.00 0.00 99 1015.7
20260510110800 17 325 0.0 0.0 0.00 0.00 0.00 99 1015.8
20260510110258 17 338 0.0 0.0 0.00 0.00 0.00 99 1015.8
20260510105758 17 337 0.0 0.0 0.00 0.00 0.00 99 1015.3
20260510105253 17 334 0.0 0.0 0.00 0.00 0.00 99 1015.2
20260510104750 16 331 0.0 0.0 0.00 0.00 0.00 99 1015.4
20260510104248 16 322 0.0 0.0 0.00 0.00 0.00 99 1015.3
20260510103743 16 322 0.0 0.0 0.00 0.00 0.00 99 1015.3
20260510103241 16 322 0.0 0.0 0.00 0.00 0.00 99 1015.3
20260510102740 16 322 0.0 0.0 0.00 0.00 0.00 99 1015.1
20260510102236 16 322 0.0 0.0 0.00 0.00 0.00 99 1015.1
20260510101734 16 322 0.0 0.0 0.00 0.00 0.00 99 1015.0
20260510101232 16 322 0.0 0.0 0.00 0.00 0.00 99 1014.9
20260510100728 16 322 0.0 0.0 0.00 0.00 0.00 99 1014.8
20260510100226 16 322 0.0 0.0 0.00 0.00 0.00 99 1015.1
20260510095721 16 322 0.0 0.0 0.00 0.00 0.00 99 1014.7
20260510095217 16 323 0.0 0.0 0.00 0.00 0.00 99 1014.6
20260510094715 16 322 0.0 0.0 0.00 0.00 0.00 99 1014.8
20260510094211 16 325 0.0 0.0 0.00 0.00 0.00 99 1014.3
20260510093707 16 356 0.0 0.0 0.00 0.00 0.00 99 1014.4
20260510093205 16 358 0.0 0.0 0.00 0.00 0.00 99 1014.3
20260510092701 16 357 0.0 0.0 0.00 0.00 0.00 99 1014.3
20260510092156 16 358 0.0 0.0 0.00 0.00 0.00 99 1014.4
20260510091652 16 356 0.0 0.0 0.00 0.00 0.00 99 1014.2
20260510091149 16 11 0.0 0.0 0.00 0.00 0.00 99 1014.1
20260510090646 16 14 0.0 0.0 0.00 0.00 0.00 99 1014.0
20260510090142 16 14 0.0 0.0 0.00 0.00 0.00 99 1013.9
20260510085638 16 14 0.0 0.0 0.00 0.00 0.00 99 1014.0
20260510085132 16 13 0.0 0.0 0.00 0.00 0.00 99 1013.9
20260510084630 16 21 0.0 0.0 0.00 0.00 0.00 99 1013.7
20260510084126 16 33 0.0 0.0 0.00 0.00 0.00 99 1013.9
20260510083623 16 32 0.0 0.0 0.00 0.00 0.00 99 1013.7
20260510083119 16 33 0.0 0.0 0.00 0.00 0.00 99 1013.6
20260510082610 16 33 0.0 0.0 0.00 0.00 0.00 99 1013.6
20260510082106 17 40 0.0 0.0 0.00 0.00 0.00 99 1013.7
20260510081601 17 47 0.0 0.0 0.00 0.00 0.00 99 1013.6
20260510081056 17 21 0.0 0.0 0.00 0.00 0.00 99 1013.6
20260510080556 17 8 0.0 0.0 0.00 0.00 0.00 99 1013.7
20260510080053 17 344 0.0 0.0 0.00 0.00 0.00 99 1013.5
20260510075550 17 344 0.0 0.0 0.00 0.00 0.00 99 1013.5
20260510075047 17 343 0.0 0.0 0.00 0.00 0.00 99 1013.4
20260510074545 17 342 0.0 0.0 0.00 0.00 0.00 99 1013.7
20260510074040 17 342 0.0 0.0 0.00 0.00 0.00 99 1013.5
20260510073536 17 341 0.0 0.0 0.00 0.00 0.00 99 1013.6
20260510073034 17 341 0.0 0.0 0.00 0.00 0.00 99 1013.6
20260510072530 17 341 0.0 0.0 0.00 0.00 0.00 99 1013.6
20260510072025 17 341 0.0 0.0 0.00 0.00 0.00 99 1013.6
20260510071521 17 338 0.0 0.0 0.00 0.00 0.00 99 1013.8
20260510071020 17 333 0.0 0.0 0.00 0.00 0.00 99 1013.8
20260510070517 16 333 0.0 0.0 0.00 0.00 0.00 99 1013.7
20260510070014 16 334 0.0 0.0 0.00 0.00 0.00 99 1013.6
20260510065510 16 333 0.0 0.0 0.00 0.00 0.00 99 1013.8
20260510065006 16 333 0.0 0.0 0.00 0.00 0.00 99 1013.8
20260510064503 16 333 0.0 0.0 0.00 0.00 0.00 99 1013.9
20260510064000 16 333 0.0 0.0 0.00 0.00 0.00 99 1014.0
20260510063456 16 333 0.0 0.0 0.00 0.00 0.00 99 1014.0
20260510062954 16 333 0.0 0.0 0.00 0.00 0.00 99 1014.1
20260510062449 16 332 0.0 0.0 0.00 0.00 0.00 99 1014.1
20260510061944 16 332 0.0 0.0 0.00 0.00 0.00 99 1014.3
20260510061441 16 333 0.0 0.0 0.00 0.00 0.00 99 1014.1
20260510060937 16 327 0.0 0.0 0.00 0.00 0.00 99 1014.1
20260510060434 16 327 0.0 0.0 0.00 0.00 0.00 99 1014.2
20260510055931 16 327 0.0 0.0 0.00 0.00 0.00 99 1014.3
20260510055426 16 328 0.0 0.0 0.00 0.00 0.00 99 1014.1
20260510054919 16 328 0.0 0.0 0.00 0.00 0.00 99 1014.1
20260510054414 16 322 0.0 0.0 0.00 0.00 0.00 99 1014.0
20260510053909 16 325 0.0 0.0 0.00 0.00 0.00 99 1014.0
20260510053405 16 325 0.0 0.0 0.00 0.00 0.00 99 1014.0
20260510052902 16 325 0.0 0.0 0.00 0.00 0.00 99 1014.2
20260510052357 16 325 0.0 0.0 0.00 0.00 0.00 99 1014.1
20260510051854 16 325 0.0 0.0 0.00 0.00 0.00 99 1014.3
20260510051350 16 325 0.0 0.0 0.00 0.00 0.00 99 1014.3
20260510050847 16 324 0.0 0.0 0.00 0.00 0.00 99 1014.4
20260510050344 16 322 0.0 0.0 0.00 0.00 0.00 99 1014.6
20260510045841 16 322 0.0 0.0 0.00 0.08 0.08 99 1014.3
20260510045338 16 322 0.0 0.0 0.00 0.08 0.08 99 1014.3
20260510044835 16 322 0.0 0.0 0.00 0.08 0.08 99 1014.1
20260510044332 17 322 0.0 0.0 0.00 0.08 0.08 99 1014.2
20260510043828 17 322 0.0 0.0 0.00 0.08 0.08 99 1014.1
20260510043324 16 322 0.0 0.0 0.00 0.08 0.08 99 1014.3
20260510042822 17 322 0.0 0.0 0.00 0.08 0.08 99 1014.1
20260510042318 17 322 0.0 0.0 0.00 0.08 0.08 99 1014.2
20260510041814 17 322 0.0 0.0 0.00 0.08 0.08 99 1014.6
20260510041312 17 322 0.0 0.0 0.00 0.08 0.08 99 1014.4
20260510040809 17 322 0.0 0.0 0.00 0.08 0.08 99 1014.4
20260510040305 17 322 0.0 0.0 0.00 0.08 0.08 99 1014.4
20260510035801 17 322 0.0 0.0 0.00 0.08 0.08 99 1014.6
20260510035257 17 322 0.0 0.0 0.00 0.08 0.08 99 1014.3
20260510034753 17 322 0.0 0.0 0.00 0.08 0.08 99 1014.2
20260510034250 17 322 0.0 0.0 0.00 0.08 0.08 99 1014.4
20260510033746 17 322 0.0 0.0 0.00 0.08 0.08 99 1014.3
20260510033239 17 322 0.0 0.0 0.00 0.08 0.08 99 1014.3
20260510032734 17 322 0.0 0.0 0.00 0.08 0.08 99 1014.6
20260510032231 17 322 0.0 0.0 0.00 0.08 0.08 99 1014.7
20260510031726 17 322 0.0 0.0 0.00 0.08 0.08 99 1014.7
20260510031222 17 322 0.0 0.0 0.00 0.08 0.08 99 1014.6
20260510030722 18 322 0.0 0.0 0.00 0.08 0.08 99 1014.7
20260510030219 18 322 0.0 0.0 0.00 0.08 0.08 99 1014.3
20260510025717 18 322 0.0 0.0 0.00 0.08 0.08 99 1014.3
20260510025214 18 322 0.0 0.0 0.00 0.08 0.08 99 1014.4
20260510024711 18 322 0.0 0.0 0.00 0.08 0.08 99 1014.4
20260510024207 18 322 0.0 0.0 0.00 0.08 0.08 99 1014.6
20260510023703 18 322 0.0 0.0 0.00 0.08 0.08 99 1014.2
20260510023200 18 322 0.0 0.0 0.00 0.08 0.08 99 1014.3
20260510022656 18 322 0.0 0.0 0.00 0.08 0.08 99 1014.2
20260510022150 18 322 0.0 0.0 0.00 0.08 0.08 99 1014.0
20260510021646 18 321 0.0 0.0 0.00 0.08 0.08 99 1014.1
20260510021143 18 321 0.0 0.0 0.00 0.08 0.08 99 1013.9
20260510020638 18 322 0.0 0.0 0.00 0.08 0.08 99 1013.7
20260510020134 18 322 0.0 0.0 0.00 0.08 0.08 99 1013.7
20260510015630 18 322 0.0 0.0 0.00 0.08 0.08 99 1013.7
20260510015127 18 322 0.0 0.0 0.00 0.08 0.08 98 1013.7
20260510014622 18 322 0.0 0.0 0.00 0.08 0.08 98 1013.6
20260510014120 18 322 0.0 0.0 0.00 0.08 0.08 98 1013.5
20260510013620 18 322 0.0 0.0 0.00 0.08 0.08 98 1013.5
20260510013115 18 322 0.0 0.0 0.00 0.08 0.08 97 1013.1
20260510012615 19 322 0.0 0.0 0.00 0.08 0.08 97 1013.1
20260510012112 19 322 0.0 0.0 0.00 0.08 0.08 96 1013.1
20260510011611 19 322 0.0 0.0 0.00 0.08 0.08 96 1012.9
20260510011107 19 322 0.0 0.0 0.00 0.08 0.08 96 1012.7
20260510010604 19 322 0.0 0.0 0.00 0.08 0.08 95 1012.8
20260510010101 19 322 0.0 0.0 0.00 0.08 0.08 95 1012.8
20260510005556 20 322 0.0 0.0 0.00 0.08 0.08 94 1012.8
20260510005054 20 322 0.0 0.0 0.00 0.08 0.08 94 1012.5
20260510004552 20 316 0.0 0.0 0.00 0.08 0.08 94 1012.5
20260510004050 20 318 0.0 0.0 0.00 0.08 0.08 93 1012.6
20260510003546 20 315 0.0 0.0 0.00 0.08 0.08 93 1012.7
20260510003041 20 313 0.0 0.0 0.00 0.08 0.08 93 1012.5
20260510002537 20 310 0.0 0.0 0.00 0.08 0.08 93 1012.7
20260510002034 20 306 0.0 0.0 0.00 0.08 0.08 92 1012.5
20260510001531 20 323 0.0 0.0 0.00 0.08 0.08 92 1012.5
20260510001030 20 14 0.0 0.0 0.00 0.08 0.08 92 1012.5
20260510000524 20 14 0.0 0.0 0.00 0.08 0.08 92 1012.6
20260510000022 20 13 0.0 0.0 0.00 0.08 0.08 92 1012.4
20260509235518 20 14 0.0 0.0 0.00 0.08 0.08 91 1012.2
20260509235015 20 14 0.0 0.0 0.00 0.08 0.08 91 1011.9
20260509234511 20 15 0.0 0.0 0.00 0.08 0.08 90 1011.9
20260509234010 21 16 0.0 0.0 0.00 0.08 0.08 90 1012.0
20260509233507 21 15 0.0 0.0 0.00 0.08 0.08 89 1012.1
20260509233004 21 25 0.0 0.0 0.00 0.08 0.08 89 1011.8
20260509232501 21 25 0.0 0.0 0.00 0.08 0.08 88 1011.8
20260509231957 21 26 0.0 0.0 0.00 0.08 0.08 87 1011.7
20260509231454 21 25 0.0 0.0 0.00 0.08 0.08 87 1011.8
20260509230951 21 24 0.0 0.0 0.00 0.08 0.08 87 1011.8
20260509230448 21 25 0.0 0.0 0.00 0.08 0.08 86 1011.9
20260509225944 21 25 0.0 0.0 0.00 0.08 0.08 85 1011.6
20260509225441 21 26 0.0 0.0 0.00 0.08 0.08 84 1011.7
20260509224936 22 27 0.0 0.0 0.00 0.08 0.08 83 1011.4
20260509224432 22 46 0.0 0.0 0.00 0.08 0.08 81 1011.6
20260509223929 22 30 0.0 0.0 0.00 0.08 0.08 83 1011.5
20260509223426 22 62 0.0 0.0 0.00 0.08 0.08 82 1011.4
20260509222923 22 194 0.0 1.6 0.00 0.08 0.08 80 1011.5
20260509222418 22 160 0.0 0.0 0.00 0.08 0.08 80 1011.4
20260509221913 22 185 1.6 3.2 0.00 0.08 0.08 79 1011.3
20260509221410 22 58 0.0 0.0 0.00 0.08 0.08 79 1011.2
20260509220907 22 69 0.0 1.6 0.00 0.08 0.08 80 1011.2
20260509220402 23 98 0.0 1.6 0.00 0.08 0.08 79 1011.4
20260509215858 23 60 0.0 0.0 0.00 0.08 0.08 78 1011.6
20260509215354 22 112 0.0 1.6 0.00 0.08 0.08 80 1011.2
20260509214852 23 70 0.0 1.6 0.00 0.08 0.08 78 1011.2
20260509214349 23 93 0.0 0.0 0.00 0.08 0.08 78 1011.2
20260509213847 23 233 0.0 0.0 0.00 0.08 0.08 77 1011.3
20260509213341 22 292 0.0 0.0 0.00 0.08 0.08 78 1011.1
20260509212839 22 204 0.0 3.2 0.00 0.08 0.08 80 1011.3
20260509212337 22 147 0.0 4.8 0.00 0.08 0.08 80 1011.0
20260509211832 23 80 0.0 0.0 0.00 0.08 0.08 78 1011.3
20260509211328 22 55 0.0 4.8 0.00 0.08 0.08 78 1011.1
20260509210825 22 182 0.0 3.2 0.00 0.08 0.08 78 1011.0
20260509210323 23 185 0.0 3.2 0.00 0.08 0.08 77 1011.0
20260509205822 24 257 1.6 3.2 0.00 0.08 0.08 75 1011.1
20260509205317 23 52 0.0 0.0 0.00 0.08 0.08 77 1010.9
20260509204814 23 181 0.0 3.2 0.00 0.08 0.08 78 1010.9
20260509204310 24 54 0.0 0.0 0.00 0.08 0.08 76 1011.0
20260509203806 23 97 1.6 3.2 0.00 0.08 0.08 74 1010.9
20260509203303 23 143 0.0 0.0 0.00 0.08 0.08 73 1010.9
20260509202759 24 203 0.0 0.0 0.00 0.08 0.08 75 1011.3